Retour au catalogue

COSMOS 1275 DEB

ActifPO
NORAD 12746·DEBRIS·🇷🇺 Russia

Lancé Jun 4, 1981 depuis Plesetsk Cosmodrome

Loading…

Prochains Passages (prochaines 24 heures)

TLE

FraisSource: Space-Track

Époque: Sep 13, 2026, 13:29 UTC

1 12746U 81053CP  26256.56230640  .00002098  00000-0  78212-3 0  9996
2 12746  82.9325  81.0884 0036543 355.7536   4.3335 14.31226209299700

Suivez COSMOS 1275 DEB en temps réel avec AllMySat

Download on the App Store